sat.trackr.live / text

‹ back to catalog

VIGORIDE-3

NORAD 52760 · 2022-057AE

PAYLOAD ACTIVE UNKNOWN

§ Identity

Operator
Country
US
Launch date
2022-05-25
Launch site
AFETR
Launch vehicle
Mass (kg)
RCS (m²)

External: N2YO · Heavens-Above · Gunter

§ Orbital elements

Epoch: 2026-05-24T22:56:24.963936Z

Period
94.30 min
Inclination
97.6572°
Eccentricity
0.0008062
Mean motion
15.26994258 rev/d
Perigee alt
479.3 km
Apogee alt
490.3 km
Semi-major
6,862.9 km
B*
1.8875e-4
RAAN
284.3242°
Arg perigee
196.3079°
Mean anomaly
163.7901°
Rev number
22,161

§ Raw data

VIGORIDE-31 52760U 22057AE  26144.95584449  .00004926  00000+0  18875-3 0  99932 52760  97.6572 284.3242 0008062 196.3079 163.7901 15.26994258221614

JSON: /api/v1/satellites/52760 · /tle

For live sub-satellite position, see the globe view (requires WebGL).

§ Visibility from observer

Set your observer location to see the next 7 days of passes ≥ 10°. The values pass through the URL so the page stays shareable.

No JS? Fill the form by hand. The geolocation button needs JavaScript.